STF-1

Last updated on Tue Feb 20 2024 00:03:33 GMT+0000 (Coordinated Universal Time)

1 43852U 18104D 24050.28380139 .04043986 -14456-5 13763-2 0 9993 2 43852 84.9848 353.5110 0009568 146.2230 213.9679 16.25500176288928

Satellite not in orbit